Flag for Germany Weather past 2 weeks in Mühlhausen/Thüringen, Thuringia, Germany

Now
46 °F

Overcast.


Feels Like: 41 °F
Forecast: 38 / 56 °F
Wind: 9 mph from Northwest

Location: Erfurt-Bindersleben

Current Time: Oct 23, 2014 at 4:03:43 AM

Latest Report: Oct 23, 2014 at 3:00 AM


Visibility: 10 mi

Pressure: 30.06 "Hg

Humidity: 88%

Dew point: 42 °F

Location of Mühlhausen/ThüringenLocation

Historic Weather in Mühlhausen/Thüringen — Graph

°F

Mühlhausen/Thüringen temperature yesterday

Maximum temperature yesterday: 46 °F (at 8:00 PM)
Minimum temperature yesterday: 40 °F (at 7:00 AM)
Average temperature yesterday: 44 °F

Past Weeks' High & Low Weather Summary

 TemperatureHumidityPressure
High68 °F (Oct 9, 5:00 PM)100% (Oct 11, 5:00 AM)30.23 "Hg (Oct 11, 5:00 AM)
Low40 °F (Oct 22, 7:00 AM)58% (Oct 15, 3:00 PM)29.47 "Hg (Oct 21, 8:00 PM)
Average56 °F86%29.89 "Hg
* Reported Oct 8 3:00 AM — Oct 23 3:00 AM, Mühlhausen/Thüringen, Weather by CustomWeather, © 2014

Note: Actual official high and low records may vary slightly from our data, if they occured in-between our weather recording intervals... More about our weather records

Advertising

Mühlhausen/Thüringen weather history for previous 24 hours

 ConditionsComfort  
Time TempWeatherWind HumidityBarometerVisibility
3:00 AM
Oct 23
46 °FOvercast.9 mph88%30.06 "Hg10 mi
2:00 AM46 °FOvercast.10 mph90%30.04 "Hg10 mi
1:00 AM46 °FOvercast.10 mph92%30.02 "Hg10 mi
12:00 AM46 °FOvercast.12 mph91%30.00 "Hg12 mi
11:00 PM
Oct 22
46 °FOvercast.13 mph92%29.98 "Hg12 mi
10:00 PM46 °FOvercast.12 mph92%29.96 "Hg11 mi
9:00 PM46 °FOvercast.13 mph92%29.92 "Hg12 mi
8:00 PM46 °FOvercast.13 mph92%29.88 "Hg14 mi
7:00 PM46 °FCool.10 mph94%29.87 "HgN/A
6:00 PM46 °FLight rain. Overcast.10 mph93%29.85 "Hg7 mi
5:00 PM45 °FLight rain. Overcast.10 mph93%29.82 "Hg12 mi
4:00 PM43 °FLight rain. Overcast.10 mph95%29.81 "Hg10 mi
3:00 PM43 °FLight rain. Overcast.14 mph93%29.79 "Hg11 mi
2:00 PM42 °FRain. Overcast.14 mph91%29.80 "Hg5 mi
1:00 PM44 °FLight rain. Overcast.13 mph90%29.81 "Hg12 mi
12:00 PM45 °FLight rain. Overcast.13 mph85%29.82 "Hg16 mi
11:00 AM44 °FOvercast.9 mph87%29.83 "Hg19 mi
10:00 AM44 °FSprinkles. Overcast.10 mph90%29.82 "Hg16 mi
9:00 AM43 °FOvercast.9 mph92%29.81 "Hg16 mi
8:00 AM41 °FOvercast.8 mph95%29.78 "Hg19 mi
7:00 AM40 °FSprinkles. Overcast.13 mph93%29.76 "Hg9 mi
6:00 AM42 °FSprinkles. Overcast.13 mph87%29.75 "Hg22 mi
5:00 AM44 °FOvercast.12 mph83%29.73 "Hg25 mi
4:00 AM43 °FPassing clouds.10 mph84%29.74 "Hg25 mi
Weather by CustomWeather, © 2014

See weather overviewHow to use our weather pages